Weather History for St. Francis, KS

Change the Weather History Date:

Thursday, May 16, 2013

  Actual Average Record
Temperature  
Mean Temperature 73 °F -  
Max Temperature 87 °F 77 °F 87 °F (2013)
Min Temperature 59 °F 47 °F 40 °F (2014)
Cooling Degree Days 8    
Growing Degree Days 23 (Base 50)    
Moisture  
Dew Point 50 °F    
Average Humidity 53    
Maximum Humidity 78    
Minimum Humidity 15    
Precipitation  
Precipitation 0.00 in - - ()
Sea Level Pressure  
Sea Level Pressure 29.83 in    
Wind  
Wind Speed 9 mph (South)    
Max Wind Speed 28 mph    
Max Gust Speed 33 mph    
Visibility 10 miles    
Events Rain    
Averages and records for this station are not official NWS values.
T = Trace of Precipitation, MM = Missing Value Source: NWS Daily Summary

Daily Weather History Graph

Daily Weather History Graph

Search for Another Location

Airport:

Trip Planner

Search our weather history database for the weather conditions in past years. The results will help you decide how hot, cold, wet, or windy it might be!

Date:

Astronomy

May. 16, 2013 Rise Set
Actual Time 6:31 AM CDT 8:56 PM CDT
Civil Twilight 6:00 AM CDT 9:26 PM CDT
Nautical Twilight 5:22 AM CDT 10:05 PM CDT
Astronomical Twilight 4:40 AM CDT 10:47 PM CDT
Moon 12:06 PM CDT (5/16) 1:18 AM CDT (5/16)
Length of Visible Light 15h 26m
Length of Day
14h 24m
Waxing Crescent, 36% of the Moon is Illuminated
May 16
Waxing Crescent
May 17
First Quarter
May 24
Full
May 31
Last Quarter
Jun 8
New

Hourly Weather History & Observations

Time (CDT) Temp. Dew Point Humidity Pressure Visibility Wind Dir Wind Speed Gust Speed Precip Events Conditions
12:15 AM 66.4 °F 50.4 °F 56% 29.86 in 10.0 mi Calm Calm - N/A   Clear
12:35 AM 65.7 °F 50.0 °F 57% 29.86 in 10.0 mi Calm Calm - N/A   Clear
12:55 AM 66.6 °F 48.4 °F 52% 29.86 in 10.0 mi South 6.9 mph - N/A   Clear
1:15 AM 67.8 °F 47.1 °F 47% 29.86 in 10.0 mi SSW 11.5 mph - N/A   Scattered Clouds
1:35 AM 63.9 °F 48.2 °F 57% 29.86 in 10.0 mi WSW 9.2 mph - N/A   Clear
1:55 AM 62.1 °F 48.9 °F 62% 29.86 in 10.0 mi WSW 11.5 mph - N/A   Clear
2:15 AM 64.0 °F 49.6 °F 59% 29.86 in 10.0 mi West 13.8 mph - N/A   Clear
2:35 AM 64.4 °F 49.3 °F 58% 29.85 in 10.0 mi West 8.1 mph - N/A   Clear
2:55 AM 64.8 °F 48.2 °F 55% 29.85 in 10.0 mi West 10.4 mph 16.1 mph N/A   Clear
3:15 AM 64.0 °F 48.0 °F 56% 29.85 in 10.0 mi West 4.6 mph - N/A   Clear
3:35 AM 63.5 °F 47.8 °F 57% 29.84 in 10.0 mi NW 8.1 mph - N/A   Clear
3:55 AM 61.2 °F 47.8 °F 62% 29.84 in 10.0 mi NW 4.6 mph - N/A   Clear
4:15 AM 60.4 °F 48.0 °F 64% 29.84 in 10.0 mi WNW 4.6 mph - N/A   Clear
4:35 AM 60.6 °F 48.9 °F 65% 29.84 in 10.0 mi WNW 3.5 mph - N/A   Clear
4:55 AM 62.6 °F 48.2 °F 59% 29.84 in 10.0 mi West 3.5 mph - N/A   Scattered Clouds
5:15 AM 60.8 °F 49.3 °F 66% 29.83 in 10.0 mi North 3.5 mph - N/A   Mostly Cloudy
5:35 AM 61.2 °F 49.5 °F 65% 29.82 in 10.0 mi NE 5.8 mph - N/A   Scattered Clouds
5:55 AM 60.6 °F 49.6 °F 67% 29.84 in 10.0 mi South 8.1 mph - N/A Rain Light Rain
6:15 AM 60.4 °F 50.0 °F 68% 29.84 in 10.0 mi SSE 4.6 mph - N/A   Mostly Cloudy
6:35 AM 60.1 °F 49.8 °F 69% 29.86 in 10.0 mi South 5.8 mph - N/A   Overcast
6:55 AM 59.9 °F 50.0 °F 70% 29.86 in 10.0 mi SSW 5.8 mph - N/A   Overcast
7:15 AM 60.4 °F 50.5 °F 70% 29.87 in 10.0 mi SW 5.8 mph - N/A   Overcast
7:35 AM 62.1 °F 51.1 °F 67% 29.87 in 10.0 mi WSW 6.9 mph - N/A   Scattered Clouds
7:55 AM 62.1 °F 51.8 °F 69% 29.87 in 10.0 mi WSW 8.1 mph - N/A   Scattered Clouds
8:15 AM 63.3 °F 52.3 °F 67% 29.88 in 10.0 mi WSW 8.1 mph - N/A   Scattered Clouds
8:55 AM 66.6 °F 52.3 °F 60% 29.87 in 10.0 mi SW 8.1 mph - N/A   Mostly Cloudy
9:15 AM 69.6 °F 51.8 °F 53% 29.88 in 10.0 mi WSW 9.2 mph - N/A   Scattered Clouds
9:35 AM 70.3 °F 51.3 °F 51% 29.88 in 10.0 mi WSW 8.1 mph - N/A   Mostly Cloudy
9:55 AM 73.6 °F 51.1 °F 45% 29.88 in 10.0 mi West 5.8 mph - N/A   Scattered Clouds
10:15 AM 76.1 °F 47.3 °F 36% 29.87 in 10.0 mi SW 6.9 mph - N/A   Clear
10:35 AM 77.7 °F 45.0 °F 31% 29.87 in 10.0 mi South 4.6 mph - N/A   Clear
10:55 AM 79.2 °F 44.6 °F 29% 29.87 in 10.0 mi SW 10.4 mph - N/A   Clear
11:15 AM 78.3 °F 45.7 °F 32% 29.87 in 10.0 mi SSW 11.5 mph - N/A   Clear
11:35 AM 81.7 °F 46.2 °F 29% 29.87 in 10.0 mi SSW 12.7 mph 16.1 mph N/A   Clear
11:55 AM 80.6 °F 46.0 °F 30% 29.87 in 10.0 mi South 8.1 mph 18.4 mph N/A   Clear
12:15 PM 81.0 °F 46.4 °F 30% 29.86 in 10.0 mi South 9.2 mph 18.4 mph N/A   Clear
12:35 PM 81.7 °F 45.7 °F 28% 29.85 in 10.0 mi South 13.8 mph 23.0 mph N/A   Clear
12:55 PM 83.5 °F 43.9 °F 25% 29.84 in 10.0 mi South 15.0 mph 21.9 mph N/A   Clear
1:15 PM 84.7 °F 43.3 °F 23% 29.83 in 10.0 mi South 19.6 mph - N/A   Clear
1:35 PM 85.5 °F 43.0 °F 22% 29.81 in 10.0 mi South 23.0 mph 29.9 mph N/A   Clear
1:55 PM 84.9 °F 43.9 °F 24% 29.82 in 10.0 mi South 17.3 mph 27.6 mph N/A   Clear
2:15 PM 85.3 °F 42.6 °F 22% 29.79 in 10.0 mi SSE 23.0 mph 28.8 mph N/A   Clear
2:35 PM 87.3 °F 33.8 °F 15% 29.78 in 10.0 mi SSW 21.9 mph 25.3 mph N/A   Clear
2:55 PM 87.4 °F 39.6 °F 18% 29.78 in 10.0 mi South 27.6 mph 33.4 mph N/A   Clear
3:15 PM 86.0 °F 41.4 °F 21% 29.76 in 10.0 mi South 24.2 mph 33.4 mph N/A   Clear
3:35 PM 82.8 °F 41.0 °F 23% 29.78 in 10.0 mi South 16.1 mph 25.3 mph N/A   Clear
3:55 PM 70.3 °F 48.2 °F 45% 29.79 in 10.0 mi North 21.9 mph 29.9 mph N/A   Mostly Cloudy
4:15 PM 63.9 °F 53.2 °F 68% 29.83 in 5.0 mi NW 17.3 mph 25.3 mph N/A Rain Rain
4:35 PM 60.8 °F 54.0 °F 78% 29.81 in 5.0 mi ENE 12.7 mph - N/A Rain Light Rain
4:55 PM 63.7 °F 53.6 °F 70% 29.78 in - ESE 13.8 mph - N/A   Unknown
5:15 PM 64.0 °F 54.3 °F 71% 29.76 in 10.0 mi SE 13.8 mph - N/A   Scattered Clouds
5:35 PM 64.9 °F 55.6 °F 72% 29.76 in 10.0 mi SE 18.4 mph - N/A   Scattered Clouds
5:55 PM 68.0 °F 56.1 °F 66% 29.77 in 10.0 mi ESE 11.5 mph - N/A   Scattered Clouds
6:15 PM 70.7 °F 55.6 °F 59% 29.77 in 10.0 mi SE 10.4 mph - N/A   Clear
6:55 PM 70.9 °F 54.9 °F 57% 29.78 in 10.0 mi ESE 12.7 mph 19.6 mph N/A   Clear
7:15 PM 69.4 °F 53.8 °F 57% 29.77 in 10.0 mi SE 16.1 mph 21.9 mph N/A   Clear
7:35 PM 70.5 °F 54.9 °F 58% 29.76 in 10.0 mi SE 15.0 mph 18.4 mph N/A   Clear
7:55 PM 70.5 °F 54.7 °F 57% 29.77 in 10.0 mi SE 15.0 mph 20.7 mph N/A   Clear
8:15 PM 68.7 °F 53.6 °F 58% 29.78 in 10.0 mi SSE 15.0 mph 20.7 mph N/A   Clear
8:35 PM 68.9 °F 53.2 °F 57% 29.79 in 10.0 mi SSE 17.3 mph - N/A   Scattered Clouds
8:55 PM 68.2 °F 52.3 °F 57% 29.79 in 10.0 mi SSE 17.3 mph - N/A   Scattered Clouds
9:15 PM 66.2 °F 53.4 °F 63% 29.81 in 10.0 mi SSE 11.5 mph - N/A   Clear
9:35 PM 66.4 °F 53.1 °F 62% 29.81 in 10.0 mi SSE 17.3 mph - N/A   Clear
9:55 PM 65.1 °F 53.6 °F 66% 29.81 in 10.0 mi SE 11.5 mph - N/A   Clear
10:15 PM 63.5 °F 53.8 °F 71% 29.82 in 10.0 mi SE 11.5 mph - N/A   Clear
10:35 PM 63.0 °F 54.0 °F 72% 29.82 in 10.0 mi SSE 11.5 mph - N/A   Clear
10:55 PM 62.6 °F 54.5 °F 75% 29.82 in 10.0 mi SSE 15.0 mph - N/A   Clear
11:15 PM 63.3 °F 54.1 °F 72% 29.83 in 10.0 mi South 17.3 mph - N/A   Clear
11:55 PM 63.5 °F 53.8 °F 71% 29.83 in 10.0 mi SSE 16.1 mph - N/A   Clear